| time (UTC) | temp F | wind direction | speed MPH | gust MPH | rain 1hr in | rain 24hr in | rain mn in | humidity % | barometer mb |
| 20260506090236 | 56 | 185 | 2.0 | 5.0 | 0.00 | 0.00 | 0.00 | 1 | 1011.7 |
| 20260506090058 | 56 | 205 | 0.0 | 7.0 | 0.00 | 0.00 | 0.00 | 1 | 1011.7 |
| 20260506085247 | 56 | 210 | 1.0 | 9.0 | 0.00 | 0.00 | 0.00 | 1 | 1011.7 |
| 20260506084519 | 56 | 204 | 0.0 | 6.0 | 0.00 | 0.00 | 0.00 | 1 | 1011.8 |
| 20260506084238 | 57 | 180 | 1.0 | 9.0 | 0.00 | 0.00 | 0.00 | 1 | 1011.8 |
| 20260506083231 | 57 | 222 | 1.0 | 5.0 | 0.00 | 0.00 | 0.00 | 1 | 1011.8 |
| 20260506083031 | 56 | 223 | 0.0 | 5.0 | 0.00 | 0.00 | 0.00 | 2 | 1011.8 |
| 20260506082223 | 57 | 203 | 0.0 | 9.0 | 0.00 | 0.00 | 0.00 | 4 | 1011.8 |
| 20260506081505 | 56 | 170 | 2.0 | 10.0 | 0.00 | 0.00 | 0.00 | 5 | 1011.8 |
| 20260506081252 | 57 | 220 | 2.0 | 6.0 | 0.00 | 0.00 | 0.00 | 6 | 1011.8 |
| 20260506080223 | 57 | 222 | 4.0 | 10.0 | 0.00 | 0.00 | 0.00 | 7 | 1012.0 |
| 20260506073242 | 57 | 178 | 2.0 | 9.0 | 0.00 | 0.00 | 0.00 | 10 | 1012.1 |
| 20260506073025 | 57 | 192 | 3.0 | 9.0 | 0.00 | 0.00 | 0.00 | 10 | 1012.1 |
| 20260506072225 | 57 | 160 | 2.0 | 9.0 | 0.00 | 0.00 | 0.00 | 12 | 1012.2 |
| 20260506071501 | 57 | 159 | 3.0 | 8.0 | 0.00 | 0.00 | 0.00 | 12 | 1012.3 |
| 20260506071228 | 57 | 182 | 2.0 | 7.0 | 0.00 | 0.00 | 0.00 | 13 | 1012.3 |
| 20260506070231 | 57 | 211 | 2.0 | 11.0 | 0.00 | 0.00 | 0.00 | 15 | 1012.2 |
| 20260506062226 | 58 | 199 | 1.0 | 9.0 | 0.00 | 0.00 | 0.00 | 21 | 1012.0 |
| 20260506061517 | 58 | 145 | 3.0 | 10.0 | 0.00 | 0.00 | 0.00 | 21 | 1011.9 |
| 20260506061237 | 58 | 179 | 4.0 | 11.0 | 0.00 | 0.00 | 0.00 | 21 | 1011.9 |
| 20260506060247 | 58 | 171 | 3.0 | 11.0 | 0.00 | 0.00 | 0.00 | 22 | 1011.9 |
| 20260506051239 | 59 | 186 | 1.0 | 10.0 | 0.00 | 0.00 | 0.00 | 27 | 1012.2 |
| 20260506050248 | 59 | 169 | 4.0 | 9.0 | 0.00 | 0.00 | 0.00 | 28 | 1012.3 |
| 20260506044540 | 58 | 219 | 2.0 | 12.0 | 0.00 | 0.00 | 0.00 | 29 | 1012.2 |
| 20260506044239 | 59 | 152 | 5.0 | 12.0 | 0.00 | 0.00 | 0.00 | 29 | 1012.3 |
| 20260506043240 | 59 | 185 | 4.0 | 11.0 | 0.00 | 0.00 | 0.00 | 31 | 1012.2 |
| 20260506043055 | 58 | 208 | 1.0 | 11.0 | 0.00 | 0.00 | 0.00 | 32 | 1012.2 |
| 20260506042232 | 59 | 182 | 3.0 | 11.0 | 0.00 | 0.00 | 0.00 | 33 | 1012.3 |
| 20260506041600 | 58 | 175 | 4.0 | 10.0 | 0.00 | 0.00 | 0.00 | 35 | 1012.2 |
| 20260506041225 | 59 | 208 | 2.0 | 11.0 | 0.00 | 0.00 | 0.00 | 36 | 1012.3 |
| 20260506040238 | 59 | 169 | 5.0 | 11.0 | 0.00 | 0.00 | 0.00 | 37 | 1012.3 |
| 20260506040023 | 59 | 184 | 6.0 | 11.0 | 0.00 | 0.00 | 0.00 | 37 | 1012.3 |
| 20260506035224 | 59 | 181 | 3.0 | 11.0 | 0.00 | 0.00 | 0.00 | 37 | 1012.2 |
| 20260506034518 | 59 | 205 | 3.0 | 12.0 | 0.00 | 0.00 | 0.00 | 37 | 1012.1 |
| 20260506034239 | 59 | 183 | 2.0 | 11.0 | 0.00 | 0.00 | 0.00 | 37 | 1012.2 |
| 20260506033233 | 59 | 181 | 5.0 | 9.0 | 0.00 | 0.00 | 0.00 | 35 | 1012.3 |
| 20260506033042 | 58 | 222 | 1.0 | 8.0 | 0.00 | 0.00 | 0.00 | 35 | 1012.2 |
| 20260506032246 | 59 | 167 | 2.0 | 9.0 | 0.00 | 0.00 | 0.00 | 35 | 1012.3 |
| 20260506031529 | 58 | 184 | 0.0 | 9.0 | 0.00 | 0.00 | 0.00 | 35 | 1012.2 |
| 20260506031240 | 59 | 142 | 1.0 | 16.0 | 0.00 | 0.00 | 0.00 | 35 | 1012.3 |
| 20260506030234 | 59 | 186 | 3.0 | 13.0 | 0.00 | 0.00 | 0.00 | 35 | 1012.4 |
| 20260506030059 | 58 | 168 | 0.0 | 13.0 | 0.00 | 0.00 | 0.00 | 36 | 1012.3 |
| 20260506025228 | 59 | 155 | 4.0 | 11.0 | 0.00 | 0.00 | 0.00 | 36 | 1012.5 |
| 20260506024553 | 59 | 192 | 2.0 | 7.0 | 0.00 | 0.00 | 0.00 | 36 | 1012.4 |
| 20260506024223 | 59 | 223 | 4.0 | 8.0 | 0.00 | 0.00 | 0.00 | 36 | 1012.3 |
| 20260506023232 | 59 | 194 | 3.0 | 8.0 | 0.00 | 0.00 | 0.00 | 36 | 1012.3 |
| 20260506023009 | 59 | 192 | 2.0 | 8.0 | 0.00 | 0.00 | 0.00 | 37 | 1012.3 |
| 20260506022224 | 59 | 211 | 1.0 | 11.0 | 0.00 | 0.00 | 0.00 | 38 | 1012.4 |
| 20260506021600 | 59 | 179 | 4.0 | 12.0 | 0.00 | 0.00 | 0.00 | 39 | 1012.4 |
| 20260506021502 | 59 | 155 | 4.0 | 12.0 | 0.00 | 0.00 | 0.00 | 39 | 1012.4 |
| 20260506021234 | 59 | 180 | 2.0 | 12.0 | 0.00 | 0.00 | 0.00 | 40 | 1012.4 |
| 20260506020223 | 59 | 203 | 4.0 | 9.0 | 0.00 | 0.00 | 0.00 | 42 | 1012.3 |
| 20260506020012 | 59 | 215 | 4.0 | 10.0 | 0.00 | 0.00 | 0.00 | 43 | 1012.3 |
| 20260506015232 | 60 | 175 | 1.0 | 6.0 | 0.00 | 0.00 | 0.00 | 46 | 1010.8 |
| 20260506014603 | 59 | 169 | 1.0 | 10.0 | 0.00 | 0.00 | 0.00 | 47 | 1007.7 |
| 20260506014223 | 60 | 178 | 2.0 | 17.0 | 0.00 | 0.00 | 0.00 | 48 | 1004.7 |
| 20260506013231 | 60 | 213 | 4.0 | 11.0 | 0.00 | 0.00 | 0.00 | 51 | 1010.4 |
| 20260506013100 | 59 | 163 | 2.0 | 11.0 | 0.00 | 0.00 | 0.00 | 52 | 1011.9 |
| 20260506012239 | 60 | 186 | 1.0 | 11.0 | 0.00 | 0.00 | 0.00 | 55 | 1011.9 |
| 20260506011540 | 60 | 147 | 5.0 | 12.0 | 0.00 | 0.00 | 0.00 | 57 | 1011.9 |
| 20260506011228 | 61 | 194 | 6.0 | 12.0 | 0.00 | 0.00 | 0.00 | 57 | 1011.9 |
| 20260506010239 | 61 | 194 | 4.0 | 11.0 | 0.00 | 0.00 | 0.00 | 56 | 1011.7 |
| 20260506010101 | 60 | 242 | 4.0 | 20.0 | 0.00 | 0.00 | 0.00 | 57 | 1011.5 |
| 20260506005230 | 61 | 160 | 4.0 | 20.0 | 0.00 | 0.00 | 0.00 | 57 | 1011.4 |
| 20260506004545 | 60 | 189 | 4.0 | 12.0 | 0.00 | 0.00 | 0.00 | 58 | 1011.5 |
| 20260506004235 | 61 | 171 | 6.0 | 14.0 | 0.00 | 0.00 | 0.00 | 58 | 1011.5 |
| 20260506003306 | 61 | 164 | 6.0 | 12.0 | 0.00 | 0.00 | 0.00 | 59 | 1011.3 |
| 20260506003043 | 61 | 211 | 5.0 | 14.0 | 0.00 | 0.00 | 0.00 | 59 | 1011.3 |
| 20260506002222 | 61 | 199 | 5.0 | 15.0 | 0.00 | 0.00 | 0.00 | 59 | 1011.3 |
| 20260506001545 | 60 | 193 | 3.0 | 12.0 | 0.00 | 0.00 | 0.00 | 58 | 1011.2 |
| 20260506001248 | 61 | 153 | 4.0 | 12.0 | 0.00 | 0.00 | 0.00 | 58 | 1011.2 |
| 20260506000226 | 61 | 189 | 4.0 | 10.0 | 0.00 | 0.00 | 0.00 | 57 | 1010.9 |
| 20260506000017 | 60 | 197 | 4.0 | 10.0 | 0.00 | 0.00 | 0.00 | 57 | 1011.0 |
| 20260505235249 | 60 | 202 | 4.0 | 13.0 | 0.00 | 0.00 | 0.00 | 56 | 1010.9 |
| 20260505234516 | 60 | 190 | 3.0 | 10.0 | 0.00 | 0.00 | 0.00 | 55 | 1010.7 |
| 20260505234227 | 60 | 171 | 5.0 | 13.0 | 0.00 | 0.00 | 0.00 | 55 | 1010.7 |
| 20260505233228 | 60 | 196 | 6.0 | 17.0 | 0.00 | 0.00 | 0.00 | 56 | 1010.4 |
| 20260505233045 | 60 | 186 | 5.0 | 17.0 | 0.00 | 0.00 | 0.00 | 56 | 1010.5 |
| 20260505232234 | 61 | 171 | 4.0 | 15.0 | 0.00 | 0.00 | 0.00 | 57 | 1010.4 |
| 20260505231550 | 60 | 200 | 5.0 | 13.0 | 0.00 | 0.00 | 0.00 | 58 | 1010.3 |
| 20260505231239 | 61 | 173 | 4.0 | 11.0 | 0.00 | 0.00 | 0.00 | 58 | 1010.3 |
| 20260505230245 | 61 | 185 | 6.0 | 12.0 | 0.00 | 0.00 | 0.00 | 58 | 1010.1 |
| 20260505230057 | 61 | 215 | 4.0 | 12.0 | 0.00 | 0.00 | 0.00 | 58 | 1010.3 |
| 20260505225228 | 61 | 165 | 6.0 | 13.0 | 0.00 | 0.00 | 0.00 | 59 | 1010.2 |
| 20260505224506 | 61 | 171 | 4.0 | 17.0 | 0.00 | 0.00 | 0.00 | 59 | 1010.2 |
| 20260505224231 | 61 | 220 | 6.0 | 17.0 | 0.00 | 0.00 | 0.00 | 59 | 1010.0 |
| 20260505223237 | 61 | 161 | 5.0 | 15.0 | 0.00 | 0.00 | 0.00 | 59 | 1010.0 |
| 20260505223036 | 61 | 209 | 4.0 | 15.0 | 0.00 | 0.00 | 0.00 | 59 | 1009.9 |
| 20260505222242 | 62 | 166 | 5.0 | 11.0 | 0.00 | 0.00 | 0.00 | 60 | 1010.0 |
| 20260505221534 | 61 | 181 | 3.0 | 9.0 | 0.00 | 0.00 | 0.00 | 61 | 1010.0 |
| 20260505221247 | 62 | 205 | 1.0 | 10.0 | 0.00 | 0.00 | 0.00 | 60 | 1009.9 |
| 20260505220224 | 62 | 180 | 3.0 | 15.0 | 0.00 | 0.00 | 0.00 | 61 | 1009.9 |
| 20260505220005 | 62 | 172 | 6.0 | 15.0 | 0.00 | 0.00 | 0.00 | 61 | 1009.9 |
| 20260505215229 | 62 | 183 | 2.0 | 16.0 | 0.00 | 0.00 | 0.00 | 61 | 1009.9 |
| 20260505214503 | 61 | 188 | 3.0 | 10.0 | 0.00 | 0.00 | 0.00 | 61 | 1009.9 |
| 20260505214301 | 62 | 194 | 5.0 | 10.0 | 0.00 | 0.00 | 0.00 | 62 | 1009.9 |
| 20260505213245 | 62 | 200 | 2.0 | 11.0 | 0.00 | 0.00 | 0.00 | 62 | 1009.6 |
| 20260505213017 | 62 | 186 | 1.0 | 11.0 | 0.00 | 0.00 | 0.00 | 62 | 1009.6 |
| 20260505212222 | 63 | 219 | 7.0 | 15.0 | 0.00 | 0.00 | 0.00 | 63 | 1009.6 |
| 20260505211523 | 62 | 211 | 5.0 | 21.0 | 0.00 | 0.00 | 0.00 | 63 | 1009.3 |
| 20260505211225 | 63 | 194 | 5.0 | 21.0 | 0.00 | 0.00 | 0.00 | 63 | 1009.5 |
| 20260505210232 | 63 | 182 | 6.0 | 13.0 | 0.00 | 0.00 | 0.00 | 63 | 1009.6 |
| 20260505210053 | 63 | 178 | 6.0 | 13.0 | 0.00 | 0.00 | 0.00 | 63 | 1009.3 |
| 20260505205242 | 63 | 155 | 3.0 | 16.0 | 0.00 | 0.00 | 0.00 | 63 | 1003.5 |
| 20260505204551 | 63 | 203 | 3.0 | 16.0 | 0.00 | 0.00 | 0.00 | 63 | 1009.4 |
| 20260505204259 | 63 | 167 | 4.0 | 13.0 | 0.00 | 0.00 | 0.00 | 63 | 1009.4 |
| 20260505203250 | 63 | 237 | 6.0 | 15.0 | 0.00 | 0.00 | 0.00 | 62 | |
| 20260505203047 | 62 | 185 | 6.0 | 12.0 | 0.00 | 0.00 | 0.00 | 62 | 1009.6 |
| 20260505202221 | 63 | 179 | 4.0 | 10.0 | 0.00 | 0.00 | 0.00 | 63 | 1009.6 |
| 20260505201543 | 63 | 247 | 1.0 | 10.0 | 0.00 | 0.00 | 0.00 | 61 | 1009.7 |
| 20260505201301 | 63 | 129 | 1.0 | 10.0 | 0.00 | 0.00 | 0.00 | 61 | 1009.7 |
| 20260505200232 | 63 | 180 | 1.0 | 8.0 | 0.00 | 0.00 | 0.00 | 61 | 1009.8 |
| 20260505200045 | 62 | 184 | 0.0 | 9.0 | 0.00 | 0.00 | 0.00 | 59 | 1009.8 |
| 20260505195225 | 62 | 179 | 5.0 | 13.0 | 0.00 | 0.00 | 0.00 | 61 | 1010.1 |
| 20260505194533 | 62 | 232 | 3.0 | 10.0 | 0.00 | 0.00 | 0.00 | 61 | 1010.2 |
| 20260505194259 | 63 | 234 | 5.0 | 11.0 | 0.00 | 0.00 | 0.00 | 62 | 1010.2 |
| 20260505193230 | 64 | 144 | 0.0 | 9.0 | 0.00 | 0.00 | 0.00 | 61 | 1010.3 |
| 20260505193035 | 63 | 123 | 0.0 | 10.0 | 0.00 | 0.00 | 0.00 | 62 | 1010.3 |
| 20260505192223 | 63 | 189 | 3.0 | 10.0 | 0.00 | 0.00 | 0.00 | 61 | 1010.5 |
| 20260505191519 | 63 | 167 | 4.0 | 10.0 | 0.00 | 0.00 | 0.00 | 61 | 1010.6 |
| 20260505191236 | 63 | 164 | 2.0 | 10.0 | 0.00 | 0.00 | 0.00 | 61 | 1010.6 |
| 20260505190229 | 63 | 173 | 1.0 | 10.0 | 0.00 | 0.00 | 0.00 | 60 | 1010.9 |
| 20260505190038 | 63 | 138 | 1.0 | 7.0 | 0.00 | 0.00 | 0.00 | 62 | 1010.9 |
| 20260505185223 | 64 | 227 | 1.0 | 7.0 | 0.00 | 0.00 | 0.00 | 61 | 1011.0 |
| 20260505184526 | 63 | 126 | 0.0 | 9.0 | 0.00 | 0.00 | 0.00 | 61 | 1011.2 |
| 20260505184239 | 64 | 132 | 1.0 | 9.0 | 0.00 | 0.00 | 0.00 | 62 | 1011.3 |
| 20260505183233 | 64 | 51 | 0.0 | 5.0 | 0.00 | 0.00 | 0.00 | 60 | 1011.3 |
| 20260505183027 | 63 | 196 | 0.0 | 7.0 | 0.00 | 0.00 | 0.00 | 61 | 1011.3 |
| 20260505182246 | 64 | 194 | 2.0 | 8.0 | 0.00 | 0.00 | 0.00 | 61 | 1011.4 |
| 20260505181526 | 63 | 171 | 0.0 | 8.0 | 0.00 | 0.00 | 0.00 | 60 | 1011.5 |
| 20260505181230 | 63 | 138 | 0.0 | 8.0 | 0.00 | 0.00 | 0.00 | 59 | 1011.5 |
| 20260505180223 | 63 | 147 | 0.0 | 5.0 | 0.00 | 0.00 | 0.00 | 60 | 1011.6 |
| 20260505180054 | 63 | 131 | 0.0 | 5.0 | 0.00 | 0.00 | 0.00 | 60 | 1011.5 |
| 20260505175236 | 63 | 170 | 1.0 | 10.0 | 0.00 | 0.00 | 0.00 | 60 | 1011.6 |
| 20260505174554 | 63 | 225 | 0.0 | 11.0 | 0.00 | 0.00 | 0.00 | 60 | 1011.7 |
| 20260505174242 | 63 | 173 | 2.0 | 6.0 | 0.00 | 0.00 | 0.00 | 59 | 1011.7 |
| 20260505173227 | 63 | 179 | 1.0 | 6.0 | 0.00 | 0.00 | 0.00 | 58 | 1011.6 |
| 20260505173024 | 62 | 205 | 1.0 | 5.0 | 0.00 | 0.00 | 0.00 | 58 | 1011.7 |
| 20260505172301 | 63 | 135 | 0.0 | 7.0 | 0.00 | 0.00 | 0.00 | 59 | 1011.7 |
| 20260505171510 | 63 | 109 | 0.0 | 6.0 | 0.00 | 0.00 | 0.00 | 58 | 1011.9 |
| 20260505171223 | 63 | 171 | 1.0 | 6.0 | 0.00 | 0.00 | 0.00 | 59 | 1011.8 |
| 20260505170233 | 63 | 148 | 0.0 | 9.0 | 0.00 | 0.00 | 0.00 | 57 | 1011.8 |
| 20260505170038 | 62 | 148 | 0.0 | 9.0 | 0.00 | 0.00 | 0.00 | 58 | 1011.8 |
| 20260505165224 | 63 | 182 | 1.0 | 8.0 | 0.00 | 0.00 | 0.00 | 59 | 1012.0 |
| 20260505164514 | 63 | 235 | 0.0 | 5.0 | 0.00 | 0.00 | 0.00 | 59 | 1011.9 |
| 20260505164233 | 63 | 179 | 0.0 | 5.0 | 0.00 | 0.00 | 0.00 | 60 | 1011.9 |
| 20260505163221 | 64 | 190 | 0.0 | 6.0 | 0.00 | 0.00 | 0.00 | 60 | 1012.2 |
| 20260505163031 | 63 | 190 | 1.0 | 6.0 | 0.00 | 0.00 | 0.00 | 61 | 1012.3 |
| 20260505162232 | 64 | 157 | 1.0 | 8.0 | 0.00 | 0.00 | 0.00 | 61 | 1012.3 |
| 20260505161518 | 64 | 100 | 1.0 | 6.0 | 0.00 | 0.00 | 0.00 | 61 | 1012.2 |
| 20260505161221 | 64 | 161 | 0.0 | 4.0 | 0.00 | 0.00 | 0.00 | 60 | 1012.1 |
| 20260505160233 | 64 | 132 | 0.0 | 2.0 | 0.00 | 0.00 | 0.00 | 59 | 1012.3 |
| 20260505153246 | 64 | 194 | 0.0 | 4.0 | 0.00 | 0.00 | 0.00 | 59 | 1012.3 |
| 20260505153042 | 64 | 194 | 0.0 | 5.0 | 0.00 | 0.00 | 0.00 | 58 | 1012.3 |
| 20260505152235 | 64 | 207 | 0.0 | 5.0 | 0.00 | 0.00 | 0.00 | 58 | 1012.5 |
| 20260505151502 | 63 | 121 | 0.0 | 6.0 | 0.00 | 0.00 | 0.00 | 55 | 1012.6 |
| 20260505151246 | 63 | 175 | 1.0 | 6.0 | 0.00 | 0.00 | 0.00 | 55 | 1012.7 |
| 20260505150234 | 63 | 190 | 0.0 | 3.0 | 0.00 | 0.00 | 0.00 | 56 | 1012.8 |
| 20260505140235 | 62 | 182 | 0.0 | 2.0 | 0.00 | 0.00 | 0.00 | 47 | 1012.5 |
| 20260505130237 | 60 | 182 | 1.0 | 6.0 | 0.00 | 0.00 | 0.00 | 27 | 1012.4 |
| 20260505124528 | 59 | 149 | 0.0 | 3.0 | 0.00 | 0.00 | 0.00 | 23 | 1012.3 |
| 20260505124221 | 59 | 149 | 0.0 | 3.0 | 0.00 | 0.00 | 0.00 | 22 | 1012.3 |
| 20260505123250 | 59 | 211 | 0.0 | 0.0 | 0.00 | 0.00 | 0.00 | 24 | 1012.3 |
| 20260505123021 | 59 | 211 | 0.0 | 0.0 | 0.00 | 0.00 | 0.00 | 23 | 1012.3 |
| 20260505122222 | 59 | 211 | 0.0 | 0.0 | 0.00 | 0.00 | 0.00 | 16 | 1012.2 |
| 20260505121551 | 59 | 211 | 0.0 | 0.0 | 0.00 | 0.00 | 0.00 | 10 | 1012.3 |
| 20260505121255 | 59 | 212 | 0.0 | 0.0 | 0.00 | 0.00 | 0.00 | 7 | 1012.3 |
| 20260505120227 | 58 | 213 | 0.0 | 0.0 | 0.00 | 0.00 | 0.00 | 3 | 1012.3 |
| 20260505120052 | 57 | 213 | 0.0 | 0.0 | 0.00 | 0.00 | 0.00 | 3 | 1012.3 |
| 20260505115241 | 57 | 213 | 0.0 | 0.0 | 0.00 | 0.00 | 0.00 | 1 | 1012.3 |
| 20260505114517 | 56 | 212 | 0.0 | 0.0 | 0.00 | 0.00 | 0.00 | 1 | 1012.2 |
| 20260505114234 | 56 | 212 | 0.0 | 0.0 | 0.00 | 0.00 | 0.00 | 1 | 1012.3 |
| 20260505113246 | 56 | 212 | 0.0 | 0.0 | 0.00 | 0.00 | 0.00 | 1 | 1012.4 |
| 20260505113021 | 55 | 212 | 0.0 | 0.0 | 0.00 | 0.00 | 0.00 | 1 | 1012.3 |
| 20260505112235 | 55 | 212 | 0.0 | 0.0 | 0.00 | 0.00 | 0.00 | 1 | 1012.4 |
| 20260505111525 | 54 | 212 | 0.0 | 0.0 | 0.00 | 0.00 | 0.00 | 1 | 1012.4 |
| 20260505111247 | 55 | 212 | 0.0 | 0.0 | 0.00 | 0.00 | 0.00 | 1 | 1012.3 |
| 20260505110230 | 54 | 213 | 0.0 | 0.0 | 0.00 | 0.00 | 0.00 | 1 | 1012.4 |
| 20260505101507 | 52 | 215 | 0.0 | 4.0 | 0.00 | 0.00 | 0.00 | 1 | 1011.6 |
| 20260505101229 | 53 | 215 | 0.0 | 4.0 | 0.00 | 0.00 | 0.00 | 1 | 1011.4 |
| 20260505100240 | 53 | 219 | 0.0 | 0.0 | 0.00 | 0.00 | 0.00 | 1 | 1011.4 |
| 20260505100039 | 52 | 219 | 0.0 | 0.0 | 0.00 | 0.00 | 0.00 | 1 | 1011.3 |
| 20260505095251 | 53 | 219 | 0.0 | 0.0 | 0.00 | 0.00 | 0.00 | 1 | 1011.3 |
| 20260505094523 | 52 | 219 | 0.0 | 0.0 | 0.00 | 0.00 | 0.00 | 1 | 1011.4 |
| 20260505094237 | 53 | 219 | 0.0 | 0.0 | 0.00 | 0.00 | 0.00 | 1 | 1011.4 |
| 20260505093248 | 53 | 219 | 0.0 | 0.0 | 0.00 | 0.00 | 0.00 | 1 | 1011.2 |
| 20260505093047 | 53 | 219 | 0.0 | 0.0 | 0.00 | 0.00 | 0.00 | 1 | 1011.3 |
| 20260505092230 | 53 | 219 | 0.0 | 0.0 | 0.00 | 0.00 | 0.00 | 1 | 1011.4 |
| 20260505091617 | 53 | 219 | 0.0 | 0.0 | 0.00 | 0.00 | 0.00 | 1 | 1011.4 |
| 20260505091241 | 53 | 219 | 0.0 | 0.0 | 0.00 | 0.00 | 0.00 | 1 | 1011.4 |